Gainesville, GA

8:21 AM EDT on October 15, 2019 (GMT -0400)
Gilmer Memorial

Weather History for KGVL - August, 2019

Change the Weather History Date:

Friday, August 9, 2019

  Actual Average Record
Temperature  
Mean Temperature 82 °F 79 °F  
Max Temperature 93 °F 88 °F 100 °F (2007)
Min Temperature 71 °F 70 °F 57 °F (1989)
Cooling Degree Days 17 14  
Month to date cooling degree days 127 126  
Year to date cooling degree days 1200 1048  
Since 1 June cooling degree days 864 873  
Growing Degree Days 32 (Base 50)    
Moisture  
Dew Point 69 °F    
Average Humidity 66    
Maximum Humidity 93    
Minimum Humidity 38    
Precipitation  
Precipitation 0.00 in 0.15 in 2.05 in (1935)
Month to date precipitation 1.38 1.51  
Year to date precipitation 36.22 33.33  
Sea Level Pressure  
Sea Level Pressure 29.93 in    
Wind  
Wind Speed 6 mph (WNW)    
Max Wind Speed 12 mph    
Max Gust Speed 15 mph    
Visibility 10 miles    
Events      
T = Trace of Precipitation, MM = Missing Value Source: NWS Daily Summary

Daily Weather History Graph

Daily Weather History Graph

Search for Another Location

Airport or City:

Astronomy

Aug. 09, 2019 Rise Set
Actual Time 6:51 AM EDT 8:29 PM EDT
Civil Twilight 6:24 AM EDT 8:56 PM EDT
Nautical Twilight 5:52 AM EDT 9:28 PM EDT
Astronomical Twilight 5:18 AM EDT 10:02 PM EDT
Moon 4:06 PM EDT (8/9) 1:50 AM EDT (8/9)
Length of Visible Light 14h 31m
Length of Day
13h 37m
Waxing Gibbous, 70% of the Moon is Illuminated
Aug 9
Waxing Gibbous
Aug 15
Full
Aug 23
Last Quarter
Aug 30
New
Sep 5
First Quarter

Hourly Weather History & Observations

Time (EDT) Temp. Heat Index Dew Point Humidity Pressure Visibility Wind Dir Wind Speed Gust Speed Precip Events Conditions
12:53 AM 75.9 °F - 71.1 °F 85% 29.94 in 10.0 mi NNW 3.5 mph - N/A   Clear
1:53 AM 75.0 °F - 71.1 °F 87% 29.93 in 10.0 mi WNW 4.6 mph - N/A   Clear
2:53 AM 75.0 °F - 72.0 °F 90% 29.92 in 10.0 mi WNW 3.5 mph - N/A   Clear
3:53 AM 73.9 °F - 72.0 °F 93% 29.89 in 10.0 mi West 4.6 mph - N/A   Clear
4:53 AM 73.9 °F - 71.1 °F 91% 29.91 in 10.0 mi NNW 3.5 mph - N/A   Clear
5:53 AM 72.0 °F - 70.0 °F 93% 29.91 in 10.0 mi West 3.5 mph - N/A   Clear
6:53 AM 73.0 °F - 71.1 °F 93% 29.92 in 10.0 mi WNW 4.6 mph - N/A   Clear
7:53 AM 75.0 °F - 70.0 °F 84% 29.93 in 10.0 mi NNW 3.5 mph - N/A   Clear
8:53 AM 75.9 °F - 71.1 °F 85% 29.95 in 10.0 mi WSW 8.1 mph - N/A   Clear
9:53 AM 81.0 °F 84.4 °F 70.0 °F 69% 29.96 in 10.0 mi West 10.4 mph - N/A   Clear
10:53 AM 82.9 °F 86.5 °F 69.1 °F 63% 29.97 in 10.0 mi WNW 8.1 mph - N/A   Clear
11:53 AM 86.0 °F 89.4 °F 68.0 °F 55% 29.96 in 10.0 mi Variable 4.6 mph - N/A   Clear
12:53 PM 88.0 °F 91.4 °F 68.0 °F 51% 29.96 in 10.0 mi West 10.4 mph - N/A   Clear
1:53 PM 90.0 °F 92.8 °F 66.9 °F 46% 29.95 in 10.0 mi NW 8.1 mph - N/A   Clear
2:53 PM 90.0 °F 93.6 °F 68.0 °F 48% 29.93 in 10.0 mi Variable 3.5 mph - N/A   Clear
3:53 PM 90.0 °F 91.7 °F 64.9 °F 43% 29.92 in 10.0 mi Variable 5.8 mph - N/A   Clear
4:53 PM 91.0 °F 91.9 °F 63.0 °F 39% 29.90 in 10.0 mi West 6.9 mph - N/A   Clear
5:53 PM 91.0 °F 92.6 °F 64.0 °F 41% 29.89 in 10.0 mi WNW 6.9 mph - N/A   Clear
6:53 PM 89.1 °F 93.7 °F 69.1 °F 52% 29.91 in 10.0 mi WSW 10.4 mph - N/A   Clear
7:53 PM 87.1 °F 91.3 °F 69.1 °F 55% 29.91 in 10.0 mi West 4.6 mph - N/A   Clear
8:53 PM 82.9 °F 87.0 °F 70.0 °F 65% 29.92 in 10.0 mi WSW 3.5 mph - N/A   Clear
9:53 PM 82.0 °F 85.9 °F 70.0 °F 67% 29.94 in 10.0 mi WSW 3.5 mph - N/A   Clear
10:53 PM 81.0 °F 84.9 °F 71.1 °F 72% 29.96 in 10.0 mi West 4.6 mph - N/A   Clear
11:53 PM 80.1 °F 83.8 °F 72.0 °F 76% 29.95 in 10.0 mi NW 4.6 mph - N/A   Clear